Location: Saratoga Springs
(43.0831°N, 73.7850°W)
Time: 05:39:52
(UTC-04:00)

Vanguard 2 - Pass Details

Date: 22 April 2024
Orbit: 553 x 2914 km, 32.9° (Epoch: 17 May)

Event Time Altitude Azimuth Distance (km) Brightness Sun altitude
Rises 07:55:21 0° 278° (W) 6,743 11.7 19.7°
Reaches altitude 10° 08:00:33 10° 270° (W) 5,739 11.4 20.7°
Maximum altitude 08:14:42 32° 216° (SW) 3,803 11.0 23.2°
Drops below altitude 10° 08:26:04 10° 160° (SSE) 4,568 11.9 25.3°
Sets 08:29:40 0° 150° (SSE) 5,246 12.3 26.0°
